owner,sensor,date,latitude,longitude,air_temperature,qcFlag 
COMPS,ioos:station:USF.COMPS:ANC:1,2009-10-01T00:00:00Z,28.1930,-82.7890,24.28,1111122 
COMPS,ioos:station:USF.COMPS:ANC:1,2009-10-01T00:06:00Z,28.1930,-82.7890,24.38,1111122 
COMPS,ioos:station:USF.COMPS:ANC:1,2009-10-01T00:12:00Z,28.1930,-82.7890,24.38,1111122 
COMPS,ioos:station:USF.COMPS:ANC:1,2009-10-01T00:18:00Z,28.1930,-82.7890,24.44,1111122 
COMPS,ioos:station:USF.COMPS:ANC:1,2009-10-01T00:24:00Z,28.1930,-82.7890,24.5,1111122 
COMPS,ioos:station:USF.COMPS:ANC:1,2009-10-01T00:30:00Z,28.1930,-82.7890,24.5,1111122 
COMPS,ioos:station:USF.COMPS:ANC:1,2009-10-01T00:36:00Z,28.1930,-82.7890,24.46,1111122 
COMPS,ioos:station:USF.COMPS:ANC:1,2009-10-01T00:42:00Z,28.1930,-82.7890,24.4,1111122 
COMPS,ioos:station:USF.COMPS:ANC:1,2009-10-01T00:48:00Z,28.1930,-82.7890,24.49,1111122 
COMPS,ioos:station:USF.COMPS:ANC:1,2009-10-01T00:54:00Z,28.1930,-82.7890,24.38,1111122 
COMPS,ioos:station:USF.COMPS:ANC:1,2009-10-01T01:00:00Z,28.1930,-82.7890,24.5,1111122 
COMPS,ioos:station:USF.COMPS:ANC:1,2009-10-01T01:06:00Z,28.1930,-82.7890,24.27,1111122 
COMPS,ioos:station:USF.COMPS:ANC:1,2009-10-01T01:12:00Z,28.1930,-82.7890,24.25,1111122 
COMPS,ioos:station:USF.COMPS:ANC:1,2009-10-01T01:18:00Z,28.1930,-82.7890,23.57,1111122 
COMPS,ioos:station:USF.COMPS:ANC:1,2009-10-01T01:24:00Z,28.1930,-82.7890,23.42,1111122 
COMPS,ioos:station:USF.COMPS:ANC:1,2009-10-01T01:30:00Z,28.1930,-82.7890,22.93,1111122 
COMPS,ioos:station:USF.COMPS:ANC:1,2009-10-01T01:36:00Z,28.1930,-82.7890,22.95,1111122 
COMPS,ioos:station:USF.COMPS:ANC:1,2009-10-01T01:42:00Z,28.1930,-82.7890,22.63,1111122 
COMPS,ioos:station:USF.COMPS:ANC:1,2009-10-01T01:48:00Z,28.1930,-82.7890,22.31,1111122 
COMPS,ioos:station:USF.COMPS:ANC:1,2009-10-01T01:54:00Z,28.1930,-82.7890,22.27,1111122 
COMPS,ioos:station:USF.COMPS:ANC:1,2009-10-01T02:00:00Z,28.1930,-82.7890,22.11,1111122 
COMPS,ioos:station:USF.COMPS:ANC:1,2009-10-01T02:06:00Z,28.1930,-82.7890,21.87,1111122 
COMPS,ioos:station:USF.COMPS:ANC:1,2009-10-01T02:12:00Z,28.1930,-82.7890,21.81,1111122 
COMPS,ioos:station:USF.COMPS:ANC:1,2009-10-01T02:18:00Z,28.1930,-82.7890,22.04,1111122 
COMPS,ioos:station:USF.COMPS:ANC:1,2009-10-01T02:24:00Z,28.1930,-82.7890,22.0,1111122 
COMPS,ioos:station:USF.COMPS:ANC:1,2009-10-01T02:30:00Z,28.1930,-82.7890,21.72,1111122 
COMPS,ioos:station:USF.COMPS:ANC:1,2009-10-01T02:36:00Z,28.1930,-82.7890,21.65,1111122 
COMPS,ioos:station:USF.COMPS:ANC:1,2009-10-01T02:42:00Z,28.1930,-82.7890,21.44,1111122 
COMPS,ioos:station:USF.COMPS:ANC:1,2009-10-01T02:48:00Z,28.1930,-82.7890,21.31,1111122 
COMPS,ioos:station:USF.COMPS:ANC:1,2009-10-01T02:54:00Z,28.1930,-82.7890,21.2,1111122 
COMPS,ioos:station:USF.COMPS:ANC:1,2009-10-01T03:00:00Z,28.1930,-82.7890,21.1,1111122 
COMPS,ioos:station:USF.COMPS:ANC:1,2009-10-01T03:06:00Z,28.1930,-82.7890,21.05,1111122 
COMPS,ioos:station:USF.COMPS:ANC:1,2009-10-01T03:12:00Z,28.1930,-82.7890,20.93,1111122 
COMPS,ioos:station:USF.COMPS:ANC:1,2009-10-01T03:18:00Z,28.1930,-82.7890,20.97,1111122 
COMPS,ioos:station:USF.COMPS:ANC:1,2009-10-01T03:24:00Z,28.1930,-82.7890,20.83,1111122 
COMPS,ioos:station:USF.COMPS:ANC:1,2009-10-01T03:30:00Z,28.1930,-82.7890,20.63,1111122 
COMPS,ioos:station:USF.COMPS:ANC:1,2009-10-01T03:36:00Z,28.1930,-82.7890,20.45,1111122 
COMPS,ioos:station:USF.COMPS:ANC:1,2009-10-01T03:42:00Z,28.1930,-82.7890,20.39,1111122 
COMPS,ioos:station:USF.COMPS:ANC:1,2009-10-01T03:48:00Z,28.1930,-82.7890,20.39,1111122 
COMPS,ioos:station:USF.COMPS:ANC:1,2009-10-01T03:54:00Z,28.1930,-82.7890,20.3,1111122 
COMPS,ioos:station:USF.COMPS:ANC:1,2009-10-01T04:00:00Z,28.1930,-82.7890,20.17,1111122 
COMPS,ioos:station:USF.COMPS:ANC:1,2009-10-01T04:06:00Z,28.1930,-82.7890,20.1,1111122 
COMPS,ioos:station:USF.COMPS:ANC:1,2009-10-01T04:12:00Z,28.1930,-82.7890,19.99,1111122 
COMPS,ioos:station:USF.COMPS:ANC:1,2009-10-01T04:18:00Z,28.1930,-82.7890,19.87,1111122 
COMPS,ioos:station:USF.COMPS:ANC:1,2009-10-01T04:24:00Z,28.1930,-82.7890,19.99,1111122 
COMPS,ioos:station:USF.COMPS:ANC:1,2009-10-01T04:30:00Z,28.1930,-82.7890,19.95,1111122 
COMPS,ioos:station:USF.COMPS:ANC:1,2009-10-01T04:36:00Z,28.1930,-82.7890,19.95,1111122 
COMPS,ioos:station:USF.COMPS:ANC:1,2009-10-01T04:42:00Z,28.1930,-82.7890,19.85,1111122 
COMPS,ioos:station:USF.COMPS:ANC:1,2009-10-01T04:48:00Z,28.1930,-82.7890,19.95,1111122 
COMPS,ioos:station:USF.COMPS:ANC:1,2009-10-01T04:54:00Z,28.1930,-82.7890,19.72,1111122 
COMPS,ioos:station:USF.COMPS:ANC:1,2009-10-01T05:00:00Z,28.1930,-82.7890,19.4,1111122 
COMPS,ioos:station:USF.COMPS:ANC:1,2009-10-01T05:06:00Z,28.1930,-82.7890,19.32,1111122 
COMPS,ioos:station:USF.COMPS:ANC:1,2009-10-01T05:12:00Z,28.1930,-82.7890,19.44,1111122 
COMPS,ioos:station:USF.COMPS:ANC:1,2009-10-01T05:18:00Z,28.1930,-82.7890,19.34,1111122 
COMPS,ioos:station:USF.COMPS:ANC:1,2009-10-01T05:24:00Z,28.1930,-82.7890,19.55,1111122 
COMPS,ioos:station:USF.COMPS:ANC:1,2009-10-01T05:30:00Z,28.1930,-82.7890,19.63,1111122 
COMPS,ioos:station:USF.COMPS:ANC:1,2009-10-01T05:36:00Z,28.1930,-82.7890,19.78,1111122 
COMPS,ioos:station:USF.COMPS:ANC:1,2009-10-01T05:42:00Z,28.1930,-82.7890,19.74,1111122 
COMPS,ioos:station:USF.COMPS:ANC:1,2009-10-01T05:48:00Z,28.1930,-82.7890,19.57,1111122 
COMPS,ioos:station:USF.COMPS:ANC:1,2009-10-01T05:54:00Z,28.1930,-82.7890,19.42,1111122 
COMPS,ioos:station:USF.COMPS:ANC:1,2009-10-01T06:00:00Z,28.1930,-82.7890,19.33,1111122 
COMPS,ioos:station:USF.COMPS:ANC:1,2009-10-01T06:06:00Z,28.1930,-82.7890,19.09,1111122 
COMPS,ioos:station:USF.COMPS:ANC:1,2009-10-01T06:12:00Z,28.1930,-82.7890,19.04,1111122 
COMPS,ioos:station:USF.COMPS:ANC:1,2009-10-01T06:18:00Z,28.1930,-82.7890,19.02,1111122 
COMPS,ioos:station:USF.COMPS:ANC:1,2009-10-01T06:24:00Z,28.1930,-82.7890,19.08,1111122 
COMPS,ioos:station:USF.COMPS:ANC:1,2009-10-01T06:30:00Z,28.1930,-82.7890,19.05,1111122 
COMPS,ioos:station:USF.COMPS:ANC:1,2009-10-01T06:36:00Z,28.1930,-82.7890,18.91,1111122 
COMPS,ioos:station:USF.COMPS:ANC:1,2009-10-01T06:42:00Z,28.1930,-82.7890,18.89,1111122 
COMPS,ioos:station:USF.COMPS:ANC:1,2009-10-01T06:48:00Z,28.1930,-82.7890,18.8,1111122 
COMPS,ioos:station:USF.COMPS:ANC:1,2009-10-01T06:54:00Z,28.1930,-82.7890,18.78,1111122 
COMPS,ioos:station:USF.COMPS:ANC:1,2009-10-01T07:00:00Z,28.1930,-82.7890,18.65,1111122 
COMPS,ioos:station:USF.COMPS:ANC:1,2009-10-01T07:06:00Z,28.1930,-82.7890,18.72,1111122 
COMPS,ioos:station:USF.COMPS:ANC:1,2009-10-01T07:12:00Z,28.1930,-82.7890,18.65,1111122 
COMPS,ioos:station:USF.COMPS:ANC:1,2009-10-01T07:18:00Z,28.1930,-82.7890,18.78,1111122 
COMPS,ioos:station:USF.COMPS:ANC:1,2009-10-01T07:24:00Z,28.1930,-82.7890,18.87,1111122 
COMPS,ioos:station:USF.COMPS:ANC:1,2009-10-01T07:30:00Z,28.1930,-82.7890,18.58,1111122 
COMPS,ioos:station:USF.COMPS:ANC:1,2009-10-01T07:36:00Z,28.1930,-82.7890,18.35,1111122 
COMPS,ioos:station:USF.COMPS:ANC:1,2009-10-01T07:42:00Z,28.1930,-82.7890,18.4,1111122 
COMPS,ioos:station:USF.COMPS:ANC:1,2009-10-01T07:48:00Z,28.1930,-82.7890,18.47,1111122 
COMPS,ioos:station:USF.COMPS:ANC:1,2009-10-01T07:54:00Z,28.1930,-82.7890,18.69,1111122 
COMPS,ioos:station:USF.COMPS:ANC:1,2009-10-01T08:00:00Z,28.1930,-82.7890,19.05,1111122 
COMPS,ioos:station:USF.COMPS:ANC:1,2009-10-01T08:06:00Z,28.1930,-82.7890,18.75,1111122 
COMPS,ioos:station:USF.COMPS:ANC:1,2009-10-01T08:12:00Z,28.1930,-82.7890,19.11,1111122 
COMPS,ioos:station:USF.COMPS:ANC:1,2009-10-01T08:18:00Z,28.1930,-82.7890,18.63,1111122 
COMPS,ioos:station:USF.COMPS:ANC:1,2009-10-01T08:24:00Z,28.1930,-82.7890,18.42,1111122 
COMPS,ioos:station:USF.COMPS:ANC:1,2009-10-01T08:30:00Z,28.1930,-82.7890,18.21,1111122 
COMPS,ioos:station:USF.COMPS:ANC:1,2009-10-01T08:36:00Z,28.1930,-82.7890,18.66,1111122 
COMPS,ioos:station:USF.COMPS:ANC:1,2009-10-01T08:42:00Z,28.1930,-82.7890,18.23,1111122 
COMPS,ioos:station:USF.COMPS:ANC:1,2009-10-01T08:48:00Z,28.1930,-82.7890,18.57,1111122 
COMPS,ioos:station:USF.COMPS:ANC:1,2009-10-01T08:54:00Z,28.1930,-82.7890,18.64,1111122 
COMPS,ioos:station:USF.COMPS:ANC:1,2009-10-01T09:00:00Z,28.1930,-82.7890,18.76,1111122 
COMPS,ioos:station:USF.COMPS:ANC:1,2009-10-01T09:06:00Z,28.1930,-82.7890,18.38,1111122 
COMPS,ioos:station:USF.COMPS:ANC:1,2009-10-01T09:12:00Z,28.1930,-82.7890,18.13,1111122 
COMPS,ioos:station:USF.COMPS:ANC:1,2009-10-01T09:18:00Z,28.1930,-82.7890,18.36,1111122 
COMPS,ioos:station:USF.COMPS:ANC:1,2009-10-01T09:24:00Z,28.1930,-82.7890,18.63,1111122 
COMPS,ioos:station:USF.COMPS:ANC:1,2009-10-01T09:30:00Z,28.1930,-82.7890,18.15,1111122 
COMPS,ioos:station:USF.COMPS:ANC:1,2009-10-01T09:36:00Z,28.1930,-82.7890,18.05,1111122 
COMPS,ioos:station:USF.COMPS:ANC:1,2009-10-01T09:42:00Z,28.1930,-82.7890,17.82,1111122 
COMPS,ioos:station:USF.COMPS:ANC:1,2009-10-01T09:48:00Z,28.1930,-82.7890,17.51,1111122 
COMPS,ioos:station:USF.COMPS:ANC:1,2009-10-01T09:54:00Z,28.1930,-82.7890,17.65,1111122 
COMPS,ioos:station:USF.COMPS:ANC:1,2009-10-01T10:00:00Z,28.1930,-82.7890,17.8,1111122 
COMPS,ioos:station:USF.COMPS:ANC:1,2009-10-01T10:06:00Z,28.1930,-82.7890,17.75,1111122 
COMPS,ioos:station:USF.COMPS:ANC:1,2009-10-01T10:12:00Z,28.1930,-82.7890,17.86,1111122 
COMPS,ioos:station:USF.COMPS:ANC:1,2009-10-01T10:18:00Z,28.1930,-82.7890,17.95,1111122 
COMPS,ioos:station:USF.COMPS:ANC:1,2009-10-01T10:24:00Z,28.1930,-82.7890,18.13,1111122 
COMPS,ioos:station:USF.COMPS:ANC:1,2009-10-01T10:30:00Z,28.1930,-82.7890,18.04,1111122 
COMPS,ioos:station:USF.COMPS:ANC:1,2009-10-01T10:36:00Z,28.1930,-82.7890,18.05,1111122 
COMPS,ioos:station:USF.COMPS:ANC:1,2009-10-01T10:42:00Z,28.1930,-82.7890,18.08,1111122 
COMPS,ioos:station:USF.COMPS:ANC:1,2009-10-01T10:48:00Z,28.1930,-82.7890,18.2,1111122 
COMPS,ioos:station:USF.COMPS:ANC:1,2009-10-01T10:54:00Z,28.1930,-82.7890,18.12,1111122 
COMPS,ioos:station:USF.COMPS:ANC:1,2009-10-01T11:00:00Z,28.1930,-82.7890,17.99,1111122 
COMPS,ioos:station:USF.COMPS:ANC:1,2009-10-01T11:06:00Z,28.1930,-82.7890,18.02,1111122 
COMPS,ioos:station:USF.COMPS:ANC:1,2009-10-01T11:12:00Z,28.1930,-82.7890,17.83,1111122 
COMPS,ioos:station:USF.COMPS:ANC:1,2009-10-01T11:18:00Z,28.1930,-82.7890,17.83,1111122 
COMPS,ioos:station:USF.COMPS:ANC:1,2009-10-01T11:24:00Z,28.1930,-82.7890,17.81,1111122 
COMPS,ioos:station:USF.COMPS:ANC:1,2009-10-01T11:30:00Z,28.1930,-82.7890,17.62,1111122 
COMPS,ioos:station:USF.COMPS:ANC:1,2009-10-01T11:36:00Z,28.1930,-82.7890,17.63,1111122 
COMPS,ioos:station:USF.COMPS:ANC:1,2009-10-01T11:42:00Z,28.1930,-82.7890,17.49,1111122 
COMPS,ioos:station:USF.COMPS:ANC:1,2009-10-01T11:48:00Z,28.1930,-82.7890,17.57,1111122 
COMPS,ioos:station:USF.COMPS:ANC:1,2009-10-01T11:54:00Z,28.1930,-82.7890,17.86,1111122 
COMPS,ioos:station:USF.COMPS:ANC:1,2009-10-01T12:00:00Z,28.1930,-82.7890,18.09,1111122 
COMPS,ioos:station:USF.COMPS:ANC:1,2009-10-01T12:06:00Z,28.1930,-82.7890,18.39,1111122 
COMPS,ioos:station:USF.COMPS:ANC:1,2009-10-01T12:12:00Z,28.1930,-82.7890,18.61,1111122 
COMPS,ioos:station:USF.COMPS:ANC:1,2009-10-01T12:18:00Z,28.1930,-82.7890,18.95,1111122 
COMPS,ioos:station:USF.COMPS:ANC:1,2009-10-01T12:24:00Z,28.1930,-82.7890,19.28,1111122 
COMPS,ioos:station:USF.COMPS:ANC:1,2009-10-01T12:30:00Z,28.1930,-82.7890,19.28,1111122 
COMPS,ioos:station:USF.COMPS:ANC:1,2009-10-01T12:36:00Z,28.1930,-82.7890,19.48,1111122 
COMPS,ioos:station:USF.COMPS:ANC:1,2009-10-01T12:42:00Z,28.1930,-82.7890,19.69,1111122 
COMPS,ioos:station:USF.COMPS:ANC:1,2009-10-01T12:48:00Z,28.1930,-82.7890,19.98,1111122 
COMPS,ioos:station:USF.COMPS:ANC:1,2009-10-01T12:54:00Z,28.1930,-82.7890,20.22,1111122 
COMPS,ioos:station:USF.COMPS:ANC:1,2009-10-01T13:00:00Z,28.1930,-82.7890,20.52,1111122 
COMPS,ioos:station:USF.COMPS:ANC:1,2009-10-01T13:06:00Z,28.1930,-82.7890,20.89,1111122 
COMPS,ioos:station:USF.COMPS:ANC:1,2009-10-01T13:12:00Z,28.1930,-82.7890,21.16,1111122 
COMPS,ioos:station:USF.COMPS:ANC:1,2009-10-01T13:18:00Z,28.1930,-82.7890,21.42,1111122 
COMPS,ioos:station:USF.COMPS:ANC:1,2009-10-01T13:24:00Z,28.1930,-82.7890,21.85,1111122 
COMPS,ioos:station:USF.COMPS:ANC:1,2009-10-01T13:30:00Z,28.1930,-82.7890,21.99,1111122 
COMPS,ioos:station:USF.COMPS:ANC:1,2009-10-01T13:36:00Z,28.1930,-82.7890,22.29,1111122 
COMPS,ioos:station:USF.COMPS:ANC:1,2009-10-01T13:42:00Z,28.1930,-82.7890,22.54,1111122 
COMPS,ioos:station:USF.COMPS:ANC:1,2009-10-01T13:48:00Z,28.1930,-82.7890,22.72,1111122 
COMPS,ioos:station:USF.COMPS:ANC:1,2009-10-01T13:54:00Z,28.1930,-82.7890,22.93,1111122 
COMPS,ioos:station:USF.COMPS:ANC:1,2009-10-01T14:00:00Z,28.1930,-82.7890,23.18,1111122 
COMPS,ioos:station:USF.COMPS:ANC:1,2009-10-01T14:06:00Z,28.1930,-82.7890,23.34,1111122 
COMPS,ioos:station:USF.COMPS:ANC:1,2009-10-01T14:12:00Z,28.1930,-82.7890,23.3,1111122 
COMPS,ioos:station:USF.COMPS:ANC:1,2009-10-01T14:18:00Z,28.1930,-82.7890,23.42,1111122 
COMPS,ioos:station:USF.COMPS:ANC:1,2009-10-01T14:24:00Z,28.1930,-82.7890,23.68,1111122 
COMPS,ioos:station:USF.COMPS:ANC:1,2009-10-01T14:30:00Z,28.1930,-82.7890,23.82,1111122 
COMPS,ioos:station:USF.COMPS:ANC:1,2009-10-01T14:36:00Z,28.1930,-82.7890,23.83,1111122 
COMPS,ioos:station:USF.COMPS:ANC:1,2009-10-01T14:42:00Z,28.1930,-82.7890,23.72,1111122 
COMPS,ioos:station:USF.COMPS:ANC:1,2009-10-01T14:48:00Z,28.1930,-82.7890,23.75,1111122 
COMPS,ioos:station:USF.COMPS:ANC:1,2009-10-01T14:54:00Z,28.1930,-82.7890,23.84,1111122 
COMPS,ioos:station:USF.COMPS:ANC:1,2009-10-01T15:00:00Z,28.1930,-82.7890,23.75,1111122 
COMPS,ioos:station:USF.COMPS:ANC:1,2009-10-01T15:06:00Z,28.1930,-82.7890,23.72,1111122 
COMPS,ioos:station:USF.COMPS:ANC:1,2009-10-01T15:12:00Z,28.1930,-82.7890,23.76,1111122 
COMPS,ioos:station:USF.COMPS:ANC:1,2009-10-01T15:18:00Z,28.1930,-82.7890,23.84,1111122 
COMPS,ioos:station:USF.COMPS:ANC:1,2009-10-01T15:24:00Z,28.1930,-82.7890,23.97,1111122 
COMPS,ioos:station:USF.COMPS:ANC:1,2009-10-01T15:30:00Z,28.1930,-82.7890,23.76,1111122 
COMPS,ioos:station:USF.COMPS:ANC:1,2009-10-01T15:36:00Z,28.1930,-82.7890,23.7,1111122 
COMPS,ioos:station:USF.COMPS:ANC:1,2009-10-01T15:42:00Z,28.1930,-82.7890,23.7,1111122 
COMPS,ioos:station:USF.COMPS:ANC:1,2009-10-01T15:48:00Z,28.1930,-82.7890,23.82,1111122 
COMPS,ioos:station:USF.COMPS:ANC:1,2009-10-01T15:54:00Z,28.1930,-82.7890,23.81,1111122 
COMPS,ioos:station:USF.COMPS:ANC:1,2009-10-01T16:00:00Z,28.1930,-82.7890,23.82,1111122 
COMPS,ioos:station:USF.COMPS:ANC:1,2009-10-01T16:06:00Z,28.1930,-82.7890,23.77,1111122 
COMPS,ioos:station:USF.COMPS:ANC:1,2009-10-01T16:12:00Z,28.1930,-82.7890,23.88,1111122 
COMPS,ioos:station:USF.COMPS:ANC:1,2009-10-01T16:18:00Z,28.1930,-82.7890,23.84,1111122 
COMPS,ioos:station:USF.COMPS:ANC:1,2009-10-01T16:24:00Z,28.1930,-82.7890,23.95,1111122 
COMPS,ioos:station:USF.COMPS:ANC:1,2009-10-01T16:30:00Z,28.1930,-82.7890,23.86,1111122 
COMPS,ioos:station:USF.COMPS:ANC:1,2009-10-01T16:36:00Z,28.1930,-82.7890,23.89,1111122 
COMPS,ioos:station:USF.COMPS:ANC:1,2009-10-01T16:42:00Z,28.1930,-82.7890,23.91,1111122 
COMPS,ioos:station:USF.COMPS:ANC:1,2009-10-01T16:48:00Z,28.1930,-82.7890,23.79,1111122 
COMPS,ioos:station:USF.COMPS:ANC:1,2009-10-01T16:54:00Z,28.1930,-82.7890,23.91,1111122 
COMPS,ioos:station:USF.COMPS:ANC:1,2009-10-01T17:00:00Z,28.1930,-82.7890,23.91,1111122 
COMPS,ioos:station:USF.COMPS:ANC:1,2009-10-01T17:06:00Z,28.1930,-82.7890,23.93,1111122 
COMPS,ioos:station:USF.COMPS:ANC:1,2009-10-01T17:12:00Z,28.1930,-82.7890,23.96,1111122 
COMPS,ioos:station:USF.COMPS:ANC:1,2009-10-01T17:18:00Z,28.1930,-82.7890,23.99,1111122 
COMPS,ioos:station:USF.COMPS:ANC:1,2009-10-01T17:24:00Z,28.1930,-82.7890,24.1,1111122 
COMPS,ioos:station:USF.COMPS:ANC:1,2009-10-01T17:30:00Z,28.1930,-82.7890,24.12,1111122 
COMPS,ioos:station:USF.COMPS:ANC:1,2009-10-01T17:36:00Z,28.1930,-82.7890,23.99,1111122 
COMPS,ioos:station:USF.COMPS:ANC:1,2009-10-01T17:42:00Z,28.1930,-82.7890,23.98,1111122 
COMPS,ioos:station:USF.COMPS:ANC:1,2009-10-01T17:48:00Z,28.1930,-82.7890,24.0,1111122 
COMPS,ioos:station:USF.COMPS:ANC:1,2009-10-01T17:54:00Z,28.1930,-82.7890,24.04,1111122 
COMPS,ioos:station:USF.COMPS:ANC:1,2009-10-01T18:00:00Z,28.1930,-82.7890,23.98,1111122 
COMPS,ioos:station:USF.COMPS:ANC:1,2009-10-01T18:06:00Z,28.1930,-82.7890,23.98,1111122 
COMPS,ioos:station:USF.COMPS:ANC:1,2009-10-01T18:12:00Z,28.1930,-82.7890,24.07,1111122 
COMPS,ioos:station:USF.COMPS:ANC:1,2009-10-01T18:18:00Z,28.1930,-82.7890,24.11,1111122 
COMPS,ioos:station:USF.COMPS:ANC:1,2009-10-01T18:24:00Z,28.1930,-82.7890,24.31,1111122 
COMPS,ioos:station:USF.COMPS:ANC:1,2009-10-01T18:30:00Z,28.1930,-82.7890,24.04,1111122 
COMPS,ioos:station:USF.COMPS:ANC:1,2009-10-01T18:36:00Z,28.1930,-82.7890,24.1,1111122 
COMPS,ioos:station:USF.COMPS:ANC:1,2009-10-01T18:42:00Z,28.1930,-82.7890,24.2,1111122 
COMPS,ioos:station:USF.COMPS:ANC:1,2009-10-01T18:48:00Z,28.1930,-82.7890,24.28,1111122 
COMPS,ioos:station:USF.COMPS:ANC:1,2009-10-01T18:54:00Z,28.1930,-82.7890,24.1,1111122 
COMPS,ioos:station:USF.COMPS:ANC:1,2009-10-01T19:00:00Z,28.1930,-82.7890,24.28,1111122 
COMPS,ioos:station:USF.COMPS:ANC:1,2009-10-01T19:06:00Z,28.1930,-82.7890,24.23,1111122 
COMPS,ioos:station:USF.COMPS:ANC:1,2009-10-01T19:12:00Z,28.1930,-82.7890,24.34,1111122 
COMPS,ioos:station:USF.COMPS:ANC:1,2009-10-01T19:18:00Z,28.1930,-82.7890,24.23,1111122 
COMPS,ioos:station:USF.COMPS:ANC:1,2009-10-01T19:24:00Z,28.1930,-82.7890,24.43,1111122 
COMPS,ioos:station:USF.COMPS:ANC:1,2009-10-01T19:30:00Z,28.1930,-82.7890,24.25,1111122 
COMPS,ioos:station:USF.COMPS:ANC:1,2009-10-01T19:36:00Z,28.1930,-82.7890,24.43,1111122 
COMPS,ioos:station:USF.COMPS:ANC:1,2009-10-01T19:42:00Z,28.1930,-82.7890,24.32,1111122 
COMPS,ioos:station:USF.COMPS:ANC:1,2009-10-01T19:48:00Z,28.1930,-82.7890,24.33,1111122 
COMPS,ioos:station:USF.COMPS:ANC:1,2009-10-01T19:54:00Z,28.1930,-82.7890,24.39,1111122 
COMPS,ioos:station:USF.COMPS:ANC:1,2009-10-01T20:00:00Z,28.1930,-82.7890,24.44,1111122 
COMPS,ioos:station:USF.COMPS:ANC:1,2009-10-01T20:06:00Z,28.1930,-82.7890,24.44,1111122 
COMPS,ioos:station:USF.COMPS:ANC:1,2009-10-01T20:12:00Z,28.1930,-82.7890,24.35,1111122 
COMPS,ioos:station:USF.COMPS:ANC:1,2009-10-01T20:18:00Z,28.1930,-82.7890,24.44,1111122 
COMPS,ioos:station:USF.COMPS:ANC:1,2009-10-01T20:24:00Z,28.1930,-82.7890,24.62,1111122 
COMPS,ioos:station:USF.COMPS:ANC:1,2009-10-01T20:30:00Z,28.1930,-82.7890,24.61,1111122 
COMPS,ioos:station:USF.COMPS:ANC:1,2009-10-01T20:36:00Z,28.1930,-82.7890,24.56,1111122 
COMPS,ioos:station:USF.COMPS:ANC:1,2009-10-01T20:42:00Z,28.1930,-82.7890,24.52,1111122 
COMPS,ioos:station:USF.COMPS:ANC:1,2009-10-01T20:48:00Z,28.1930,-82.7890,24.56,1111122 
COMPS,ioos:station:USF.COMPS:ANC:1,2009-10-01T20:54:00Z,28.1930,-82.7890,24.65,1111122 
COMPS,ioos:station:USF.COMPS:ANC:1,2009-10-01T21:00:00Z,28.1930,-82.7890,24.65,1111122 
COMPS,ioos:station:USF.COMPS:ANC:1,2009-10-01T21:06:00Z,28.1930,-82.7890,24.67,1111122 
COMPS,ioos:station:USF.COMPS:ANC:1,2009-10-01T21:12:00Z,28.1930,-82.7890,24.76,1111122 
COMPS,ioos:station:USF.COMPS:ANC:1,2009-10-01T21:18:00Z,28.1930,-82.7890,24.87,1111122 
COMPS,ioos:station:USF.COMPS:ANC:1,2009-10-01T21:24:00Z,28.1930,-82.7890,25.02,1111122 
COMPS,ioos:station:USF.COMPS:ANC:1,2009-10-01T21:30:00Z,28.1930,-82.7890,24.81,1111122 
COMPS,ioos:station:USF.COMPS:ANC:1,2009-10-01T21:36:00Z,28.1930,-82.7890,24.8,1111122 
COMPS,ioos:station:USF.COMPS:ANC:1,2009-10-01T21:42:00Z,28.1930,-82.7890,24.92,1111122 
COMPS,ioos:station:USF.COMPS:ANC:1,2009-10-01T21:48:00Z,28.1930,-82.7890,24.95,1111122 
COMPS,ioos:station:USF.COMPS:ANC:1,2009-10-01T21:54:00Z,28.1930,-82.7890,24.99,1111122 
COMPS,ioos:station:USF.COMPS:ANC:1,2009-10-01T22:00:00Z,28.1930,-82.7890,24.96,1111122 
COMPS,ioos:station:USF.COMPS:ANC:1,2009-10-01T22:06:00Z,28.1930,-82.7890,24.99,1111122 
COMPS,ioos:station:USF.COMPS:ANC:1,2009-10-01T22:12:00Z,28.1930,-82.7890,25.05,1111122 
COMPS,ioos:station:USF.COMPS:ANC:1,2009-10-01T22:18:00Z,28.1930,-82.7890,25.06,1111122 
COMPS,ioos:station:USF.COMPS:ANC:1,2009-10-01T22:24:00Z,28.1930,-82.7890,25.21,1111122 
COMPS,ioos:station:USF.COMPS:ANC:1,2009-10-01T22:30:00Z,28.1930,-82.7890,25.09,1111122 
COMPS,ioos:station:USF.COMPS:ANC:1,2009-10-01T22:36:00Z,28.1930,-82.7890,25.13,1111122 
COMPS,ioos:station:USF.COMPS:ANC:1,2009-10-01T22:42:00Z,28.1930,-82.7890,25.11,1111122 
COMPS,ioos:station:USF.COMPS:ANC:1,2009-10-01T22:48:00Z,28.1930,-82.7890,25.11,1111122 
COMPS,ioos:station:USF.COMPS:ANC:1,2009-10-01T22:54:00Z,28.1930,-82.7890,25.13,1111122 
COMPS,ioos:station:USF.COMPS:ANC:1,2009-10-01T23:00:00Z,28.1930,-82.7890,25.12,1111122 
COMPS,ioos:station:USF.COMPS:ANC:1,2009-10-01T23:06:00Z,28.1930,-82.7890,25.13,1111122 
COMPS,ioos:station:USF.COMPS:ANC:1,2009-10-01T23:12:00Z,28.1930,-82.7890,25.1,1111122 
COMPS,ioos:station:USF.COMPS:ANC:1,2009-10-01T23:18:00Z,28.1930,-82.7890,25.16,1111122 
COMPS,ioos:station:USF.COMPS:ANC:1,2009-10-01T23:24:00Z,28.1930,-82.7890,25.28,1111122 
COMPS,ioos:station:USF.COMPS:ANC:1,2009-10-01T23:30:00Z,28.1930,-82.7890,25.16,1111122 
COMPS,ioos:station:USF.COMPS:ANC:1,2009-10-01T23:36:00Z,28.1930,-82.7890,25.12,1111122 
COMPS,ioos:station:USF.COMPS:ANC:1,2009-10-01T23:42:00Z,28.1930,-82.7890,25.12,1111122 
COMPS,ioos:station:USF.COMPS:ANC:1,2009-10-01T23:48:00Z,28.1930,-82.7890,25.19,1111122 
COMPS,ioos:station:USF.COMPS:ANC:1,2009-10-01T23:54:00Z,28.1930,-82.7890,25.24,1111122 
COMPS,ioos:station:USF.COMPS:ANC:1,2009-10-02T00:00:00Z,28.1930,-82.7890,25.25,1111122 
COMPS,ioos:station:USF.COMPS:ANC:1,2009-10-02T00:06:00Z,28.1930,-82.7890,25.16,1111122 
COMPS,ioos:station:USF.COMPS:ANC:1,2009-10-02T00:12:00Z,28.1930,-82.7890,25.25,1111122 
COMPS,ioos:station:USF.COMPS:ANC:1,2009-10-02T00:18:00Z,28.1930,-82.7890,25.3,1111122 
COMPS,ioos:station:USF.COMPS:ANC:1,2009-10-02T00:24:00Z,28.1930,-82.7890,25.4,1111122 
COMPS,ioos:station:USF.COMPS:ANC:1,2009-10-02T00:30:00Z,28.1930,-82.7890,25.3,1111122 
COMPS,ioos:station:USF.COMPS:ANC:1,2009-10-02T00:36:00Z,28.1930,-82.7890,25.27,1111122 
COMPS,ioos:station:USF.COMPS:ANC:1,2009-10-02T00:42:00Z,28.1930,-82.7890,25.34,1111122 
COMPS,ioos:station:USF.COMPS:ANC:1,2009-10-02T00:48:00Z,28.1930,-82.7890,25.32,1111122 
COMPS,ioos:station:USF.COMPS:ANC:1,2009-10-02T00:54:00Z,28.1930,-82.7890,25.31,1111122 
COMPS,ioos:station:USF.COMPS:ANC:1,2009-10-02T01:00:00Z,28.1930,-82.7890,25.27,1111122 
COMPS,ioos:station:USF.COMPS:ANC:1,2009-10-02T01:06:00Z,28.1930,-82.7890,25.17,1111122 
COMPS,ioos:station:USF.COMPS:ANC:1,2009-10-02T01:12:00Z,28.1930,-82.7890,25.13,1111122 
COMPS,ioos:station:USF.COMPS:ANC:1,2009-10-02T01:18:00Z,28.1930,-82.7890,25.23,1111122 
COMPS,ioos:station:USF.COMPS:ANC:1,2009-10-02T01:24:00Z,28.1930,-82.7890,25.36,1111122 
COMPS,ioos:station:USF.COMPS:ANC:1,2009-10-02T01:30:00Z,28.1930,-82.7890,25.32,1111122 
COMPS,ioos:station:USF.COMPS:ANC:1,2009-10-02T01:36:00Z,28.1930,-82.7890,25.1,1111122 
COMPS,ioos:station:USF.COMPS:ANC:1,2009-10-02T01:42:00Z,28.1930,-82.7890,25.22,1111122 
COMPS,ioos:station:USF.COMPS:ANC:1,2009-10-02T01:48:00Z,28.1930,-82.7890,25.02,1111122 
COMPS,ioos:station:USF.COMPS:ANC:1,2009-10-02T01:54:00Z,28.1930,-82.7890,24.77,1111122 
COMPS,ioos:station:USF.COMPS:ANC:1,2009-10-02T02:00:00Z,28.1930,-82.7890,24.69,1111122 
COMPS,ioos:station:USF.COMPS:ANC:1,2009-10-02T02:06:00Z,28.1930,-82.7890,24.29,1111122 
COMPS,ioos:station:USF.COMPS:ANC:1,2009-10-02T02:12:00Z,28.1930,-82.7890,24.03,1111122 
COMPS,ioos:station:USF.COMPS:ANC:1,2009-10-02T02:18:00Z,28.1930,-82.7890,24.22,1111122 
COMPS,ioos:station:USF.COMPS:ANC:1,2009-10-02T02:24:00Z,28.1930,-82.7890,24.02,1111122 
COMPS,ioos:station:USF.COMPS:ANC:1,2009-10-02T02:30:00Z,28.1930,-82.7890,23.98,1111122 
COMPS,ioos:station:USF.COMPS:ANC:1,2009-10-02T02:36:00Z,28.1930,-82.7890,24.08,1111122 
COMPS,ioos:station:USF.COMPS:ANC:1,2009-10-02T02:42:00Z,28.1930,-82.7890,24.27,1111122 
COMPS,ioos:station:USF.COMPS:ANC:1,2009-10-02T02:48:00Z,28.1930,-82.7890,24.33,1111122 
COMPS,ioos:station:USF.COMPS:ANC:1,2009-10-02T02:54:00Z,28.1930,-82.7890,24.33,1111122 
COMPS,ioos:station:USF.COMPS:ANC:1,2009-10-02T03:00:00Z,28.1930,-82.7890,24.25,1111122 
COMPS,ioos:station:USF.COMPS:ANC:1,2009-10-02T03:06:00Z,28.1930,-82.7890,24.21,1111122 